User: anonymous   Login
Location: Caltech
(34.1382°N, 118.1253°W)
Time: 14:03:55
(UTC-07:00)
Language:

Iridium 68 - Orbit

View from above orbital plane
View from above orbital plane
View from above satellite
View from above satellite

Ground track
Ground track

The orbit data is extracted from the following two-line orbital elements,

1 25291U 98021G   15111.28611465  .00000755  00000-0  26237-3 0  9991
2 25291 086.4018 193.3360 0002436 098.0696 262.0776 14.34219270892064
Epoch (UTC): 21 April 2015 06:52:00
Eccentricity: 0.0002436
inclination: 86.4018°
perigee height: 776 km
apogee height: 779 km
right ascension of ascending node: 193.3360°
argument of perigee: 98.0696°
revolutions per day: 14.34219270
mean anomaly at epoch: 262.0776°
orbit number at epoch: 89206

The dashed part of the orbit path shows where the satellite is in the earth's shadow,  

DLR